This demonstration page uses our WeatherBlox Daily Observations layout. Learn more.

Left ArrowRight Arrow

53.62937, 11.41316

Hourly Observations for April 30, 2018

Temp ( °F °C ) Dew Point ( °F °C ) Humidity (%) Winds ( mph kmh ) Pressure ( in mb ) Visibility ( mi km ) Precip ( " mm )
6:50 am 06:50 Mostly Sunny 54 12 48 9 82 82 E 10 17 29.47 998 7 11 N/A
7:20 am 07:20 Mostly Sunny 55 13 48 9 77 77 ENE 12 19 29.47 998 7 11 N/A
7:50 am 07:50 Mostly Sunny 57 14 50 10 77 77 ENE 12 19 29.44 997 7 11 N/A
8:20 am 08:20 Mostly Sunny 59 15 50 10 72 72 E 8 13 29.44 997 7 11 N/A
8:50 am 08:50 Mostly Sunny 59 15 50 10 72 72 ESE 8 13 29.44 997 7 11 N/A
9:20 am 09:20 Mostly Sunny 59 15 50 10 72 72 E 12 19 29.44 997 7 11 N/A
9:50 am 09:50 Partly Cloudy with Light Rain 57 14 54 12 88 88 E 5 7 29.44 997 30 48 N/A
10:20 am 10:20 Mostly Sunny 61 16 55 13 83 83 E 7 11 29.41 996 7 11 N/A
10:50 am 10:50 Mostly Sunny 63 17 54 12 73 73 ESE 8 13 29.44 997 7 11 N/A
11:20 am 11:20 Mostly Sunny 64 18 54 12 68 68 SE 7 11 29.41 996 7 11 N/A
11:50 am 11:50 Mostly Cloudy 66 19 55 13 68 68 SSE 7 11 29.41 996 30 48 N/A
12:20 pm 12:20 Mostly Cloudy 64 18 55 13 73 73 S 7 11 29.44 997 30 48 N/A
12:50 pm 12:50 Mostly Cloudy 64 18 57 14 78 78 SSW 5 7 29.44 997 30 48 N/A
1:20 pm 13:20 Mostly Cloudy 63 17 55 13 77 77 VRB 7 11 29.44 997 30 48 N/A
1:50 pm 13:50 Mostly Cloudy 61 16 55 13 83 83 SSW 18 30 29.47 998 30 48 N/A
2:20 pm 14:20 Mostly Cloudy 61 16 54 12 77 77 SSW 14 22 29.47 998 30 48 N/A
2:50 pm 14:50 Mostly Cloudy 61 16 54 12 77 77 SSW 15 24 29.47 998 30 48 N/A
3:20 pm 15:20 Mostly Cloudy with Light Rain 57 14 54 12 88 88 SSW 16 26 29.50 999 4 6 N/A
3:50 pm 15:50 Mostly Cloudy 57 14 55 13 94 94 SSW 15 24 29.50 999 30 48 N/A
4:20 pm 16:20 Mostly Cloudy 55 13 55 13 100 100 SSW 14 22 29.53 1000 30 48 N/A
4:50 pm 16:50 Partly Cloudy 57 14 52 11 82 82 S 12 19 29.53 1000 30 48 N/A
5:20 pm 17:20 Mostly Sunny 59 15 52 11 77 77 SSW 14 22 29.53 1000 30 48 N/A
5:50 pm 17:50 Partly Cloudy 61 16 52 11 72 72 SSW 12 19 29.53 1000 30 48 N/A
6:20 pm 18:20 Partly Cloudy 61 16 50 10 68 68 S 10 17 29.53 1000 30 48 N/A
6:50 pm 18:50 Partly Cloudy 61 16 48 9 63 63 S 8 13 29.53 1000 30 48 N/A
7:20 pm 19:20 Mostly Sunny 61 16 46 8 59 59 S 9 15 29.53 1000 30 48 N/A
7:50 pm 19:50 Mostly Sunny 59 15 45 7 59 59 S 7 11 29.53 1000 30 48 N/A
8:20 pm 20:20 Mostly Sunny 59 15 45 7 59 59 SSE 3 6 29.56 1001 7 11 N/A
8:50 pm 20:50 Mostly Clear 59 15 45 7 59 59 S 6 9 29.56 1001 7 11 N/A

Powered by AerisWeather